Location: Kapuskasing
(49.3803°N, 82.4001°W)
Time: 10:47:31
(UTC-04:00)

RS-44 - Pass Details

Date: 19 March 2026
Orbit: 1175 x 1510 km, 82.5° (Epoch: 11 April)

Event Time Altitude Azimuth Distance (km) Brightness Sun altitude
Rises 00:40:51 0° 353° (N) 4,397 ? -39.7°
Reaches altitude 10° 00:46:04 10° 21° (NNE) 3,500 ? -39.9°
Maximum altitude 00:49:24 13° 45° (NE) 3,341 ? -40.1°
Drops below altitude 10° 00:52:46 10° 69° (ENE) 3,583 ? -40.2°
Enters shadow 00:54:15 - 78° (ENE) 3,800 ? -40.3°
